Location: Newark
(35.8833°N, 14.5000°E)
Time: 08:50:55
(UTC+00:00)

Explorer 11/Cluster Stage 4 - All Passes

Search period start: 12 November 2019 00:00
Search period end: 22 November 2019 00:00
Orbit: 467 x 1259 km, 28.8° (Epoch: 11 November)

Date Brightness Start Highest point End Pass type
(mag) Time Alt. Az. Time Alt. Az. Time Alt. Az.
12 Nov - 00:56:23 10° W 01:04:13 48° S 01:11:29 10° ESE visible
12 Nov - 02:46:17 10° W 02:52:50 28° SSW 02:58:41 10° SSE visible
12 Nov - 19:23:14 10° S 19:27:10 15° SSE 19:31:22 10° ESE visible
12 Nov - 21:08:36 10° SW 21:15:22 36° SSE 21:22:41 10° E night (unlit)
12 Nov - 22:56:32 10° WSW 23:04:15 52° S 23:12:07 10° ESE night (unlit)
13 Nov - 00:45:31 10° W 00:53:18 46° SSW 01:00:40 10° ESE visible
13 Nov - 02:35:31 10° WSW 02:41:54 26° SSW 02:47:44 10° SSE visible
13 Nov - 19:11:59 10° S 19:16:14 17° SSE 19:20:51 10° ESE visible
13 Nov - 20:57:45 10° SW 21:04:26 38° SSE 21:11:50 10° E night (unlit)
13 Nov - 22:45:43 10° WSW 22:53:20 52° S 23:01:16 10° ESE night (unlit)
14 Nov - 00:34:41 10° W 00:42:22 44° SSW 00:49:48 10° SE night (unlit)
14 Nov - 02:24:47 10° WSW 02:30:58 24° SSW 02:36:41 10° SSE visible
14 Nov - 19:00:53 10° SSW 19:05:19 19° SSE 19:10:14 10° ESE visible
14 Nov - 20:46:57 10° SW 20:53:31 40° SSE 21:00:58 10° E night (unlit)
14 Nov - 22:34:56 10° WSW 22:42:25 52° S 22:50:22 10° ESE night (unlit)
15 Nov - 00:23:52 10° W 00:31:26 42° SSW 00:38:53 10° SE night (unlit)
15 Nov - 02:14:08 10° WSW 02:20:00 22° SSW 02:25:32 10° SSE visible
15 Nov - 18:49:53 10° SSW 18:54:25 21° SSE 18:59:33 10° ESE visible
15 Nov - 20:36:11 10° SW 20:42:38 42° SSE 20:50:03 10° E night (unlit)
15 Nov - 22:24:11 10° WSW 22:31:31 51° S 22:39:27 10° ESE night (unlit)
16 Nov - 00:13:07 10° W 00:20:30 39° SSW 00:27:55 10° SE night (unlit)
16 Nov - 02:03:34 10° WSW 02:09:02 19° SSW 02:14:17 10° SSE visible
16 Nov - 18:38:58 10° SSW 18:43:32 22° SSE 18:48:48 10° ESE visible
16 Nov - 20:25:28 10° WSW 20:31:45 43° SSE 20:39:07 10° E night (unlit)
16 Nov - 22:13:29 10° WSW 22:20:37 50° S 22:28:30 10° ESE night (unlit)
17 Nov - 00:02:24 10° W 00:09:33 37° SSW 00:16:53 10° SE night (unlit)
17 Nov - 01:53:08 10° WSW 01:58:03 17° SSW 02:02:53 10° S visible
17 Nov - 18:28:08 10° SSW 18:32:41 24° SSE 18:38:00 10° ESE visible
17 Nov - 20:14:47 10° WSW 20:20:54 45° S 20:28:10 10° E visible
17 Nov - 22:02:49 10° WSW 22:09:44 49° S 22:17:30 10° ESE night (unlit)
17 Nov - 23:51:44 10° W 23:58:37 34° SSW 00:05:48 10° SE night (unlit)
18 Nov - 01:42:52 10° WSW 01:47:05 15° SSW 01:51:18 10° S visible
18 Nov - 18:17:22 10° SSW 18:21:52 25° SSE 18:27:11 10° ESE visible
18 Nov - 20:04:09 10° WSW 20:10:05 45° S 20:17:13 10° ESE visible
18 Nov - 21:52:10 10° WSW 21:58:51 47° S 22:06:30 10° ESE night (unlit)
18 Nov - 23:41:07 10° WSW 23:47:41 31° SSW 23:54:37 10° SE night (unlit)
19 Nov - 01:32:53 10° SW 01:36:08 13° SSW 01:39:23 10° S night (unlit)
19 Nov - 18:06:38 10° SW 18:11:04 27° SSE 18:16:21 10° ESE visible
19 Nov - 19:53:33 10° WSW 19:59:16 45° S 20:06:14 10° ESE visible
19 Nov - 21:41:34 10° WSW 21:48:00 44° S 21:55:27 10° ESE night (unlit)
19 Nov - 23:30:33 10° WSW 23:36:46 28° SSW 23:43:23 10° SSE night (unlit)
20 Nov - 01:23:46 10° SW 01:25:11 10° SSW 01:26:37 10° SSW night (unlit)
20 Nov - 17:55:58 10° SW 18:00:17 28° SSE 18:05:30 10° ESE visible
20 Nov - 19:42:59 10° WSW 19:48:29 45° S 19:55:15 10° ESE visible
20 Nov - 21:31:00 10° WSW 21:37:09 41° S 21:44:22 10° ESE night (unlit)
20 Nov - 23:20:05 10° WSW 23:25:50 24° SSW 23:32:04 10° SSE night (unlit)
21 Nov - 17:45:20 10° SW 17:49:32 29° SSE 17:54:39 10° ESE visible
21 Nov - 19:32:27 10° WSW 19:37:44 44° S 19:44:16 10° ESE visible
21 Nov - 21:20:27 10° WSW 21:26:19 38° S 21:33:15 10° SE night (unlit)
21 Nov - 23:09:43 10° WSW 23:14:57 21° SSW 23:20:37 10° SSE night (unlit)
